Regional Weather Roundup
Issued by NWS

Home | Current Version | Previous Version | Text Only | Print | Product List | Glossary Off
Versions: 1 2 3 4 5 6 7 8 9 10 11 12 13 14 15 16 17 18 19 20 21 22 23 24 25 26 27 28 29 30 31 32 33 34 35 36 37 38 39 40 41 42 43 44 45 46 47 48 49

000
ASUS45 KBOI 040810
RWRID

IDAHO REGIONAL WEATHER ROUNDUP
NATIONAL WEATHER SERVICE BOISE ID
200 AM MDT SAT JUL 04 2015

NOTE: "FAIR" INDICATES FEW OR NO CLOUDS BELOW 12000 FEET
WITH NO SIGNIFICANT WEATHER AND/OR OBSTRUCTIONS TO VISIBILITY

IDZ012-014-040900-
SOUTHWEST IDAHO


CITY           SKY/WX    TMP DP  RH WIND       PRES   REMARKS
BOISE          MOCLDY    79  40  24 SE5       29.82S
CALDWELL       MOCLDY    75  46  35 W7        29.81S
MOUNTAIN HOME  MOCLDY    79  39  23 VRB5      29.82F
$$

IDZ016-017-040900-
SOUTHCENTRAL IDAHO


CITY           SKY/WX    TMP DP  RH WIND       PRES   REMARKS
BURLEY         PTCLDY    69  52  54 SW8       29.91S
JEROME         PTCLDY    74  48  39 SW3       29.92S
TWIN FALLS     PTCLDY    78  45  30 S12       29.90S
$$

IDZ019>023-040900-
SOUTHEAST IDAHO


CITY           SKY/WX    TMP DP  RH WIND       PRES   REMARKS
IDAHO FALLS    PTCLDY    64  55  72 W7        29.94R
POCATELLO      CLEAR     70  53  54 NE7       29.95R
REXBURG        CLEAR     63  56  78 N7        29.94R
$$

IDZ006-010-011-018-031-032-040900-
CENTRAL IDAHO MOUNTAINS


CITY           SKY/WX    TMP DP  RH WIND       PRES   REMARKS
MCCALL         CLEAR     62  46  55 CALM      30.00S
HAILEY         MOCLDY    64  37  36 NW10      30.02S
STANLEY          N/A     51  32  48 CALM      30.15S
SALMON         CLEAR     61  43  51 CALM      29.94R
CHALLIS        CLEAR     65  41  41 SE7       30.01R
$$

IDZ002-004-006-007-026-040900-
NORTHERN IDAHO


CITY           SKY/WX    TMP DP  RH WIND       PRES   REMARKS
LEWISTON       CLEAR     82  41  23 SW5       29.75S
LOWELL           N/A     66  54  65 NW3       29.84R
COEUR D`ALENE  CLEAR     73  52  46 S7        29.79S
MULLAN PASS    CLEAR     70  34  26 W5        30.07F
$$


USA.gov is the U.S. government's official web portal to all federal, state and local government web resources and services.